Location: Gellin
(53.4498°N, 14.3207°E)
Time: 01:04:05
(UTC+00:00)

USA 186 - Pass Details

Date: 03 March 2021
Orbit: 261 x 430 km, 96.9° (Epoch: 08 April)

Event Time Altitude Azimuth Distance (km) Brightness Sun altitude
Exits shadow 18:28:27 64° 163° (SSE) 331 1.0 -16.2°
Maximum altitude 18:28:46 89° 82° (E) 300 0.9 -16.2°
Drops below altitude 10° 18:31:18 10° 347° (NNW) 1,199 4.4 -16.6°
Sets 18:33:14 0° 347° (NNW) 2,066 5.6 -16.9°
